Location: Beloeil
(45.5670°N, 73.2000°W)
Time: 15:55:53
(UTC-04:00)

Daily predictions for brighter satellites

Satellite Brightness Start Highest point End
(mag) Time Altitude Azimuth Time Altitude Azimuth Time Altitude Azimuth
NOSS 3-1 (A) 4.1 21:12:41 10° S 21:17:46 31° ESE 21:23:17 10° NE
YAOGAN 6 3.5 21:16:30 10° SE 21:19:47 33° ENE 21:23:03 10° N
Cosmos 1300 3.3 21:20:55 10° N 21:24:35 41° ENE 21:28:14 10° SSE
Cosmos 2058 3.4 21:20:56 10° SSE 21:24:47 41° E 21:28:40 10° NNE
Cosmos 1833 4.5 21:23:43 10° SSW 21:29:26 77° WNW 21:35:08 10° NNE
SL-16 R/B 4.2 21:26:33 10° N 21:30:10 17° NE 21:33:46 10° E
Sich 1 4.0 21:27:11 10° SSE 21:31:04 31° E 21:34:56 10° NNE
Cosmos 2333 Rocket 3.3 21:26:31 10° NNW 21:31:46 35° NE 21:36:59 10° ESE
Cosmos 1151 Rocket 3.7 21:30:29 10° NNW 21:34:43 55° W 21:38:56 10° S
Cosmos 1633 Rocket 3.9 21:32:08 10° SSE 21:36:03 33° E 21:39:58 10° NNE
MetOp-A 4.2 21:31:58 10° SSE 21:37:18 77° ENE 21:42:41 10° NNW
Cosmos 1437 3.0 21:34:37 10° SSW 21:37:53 76° W 21:41:11 10° N
USA 245 3.0 21:38:04 12° SE 21:40:04 32° ENE 21:42:09 10° N
ATLAS 2AS CENTAUR R/B 4.0 21:34:56 10° SSE 21:40:28 23° ESE 21:46:16 10° ENE
COSMOS 2428 2.8 21:38:06 10° NNW 21:43:50 87° WSW 21:49:30 10° SSE
Cosmos 2297 Rocket 3.8 21:42:05 10° SE 21:45:14 16° E 21:48:27 10° ENE
ARGOS 3.5 21:40:53 10° SSE 21:46:08 55° ENE 21:51:24 10° N
Cosmos 1455 4.0 21:44:05 10° NNE 21:46:51 19° ENE 21:49:25 11° ESE
ERS-1 Rocket 4.5 21:43:10 10° SSW 21:47:43 34° W 21:52:20 10° NNW
Cosmos 2219 Rocket 2.5 21:42:27 10° NNW 21:47:57 55° ENE 21:53:00 12° SE
Envisat 3.7 21:44:20 10° S 21:49:18 55° W 21:54:18 10° NNW
Cosmos 1939 Rocket 4.2 21:46:52 10° SSW 21:50:29 35° W 21:54:05 10° NNW
ATLAS 3B R/B 3.8 21:44:21 10° NNW 21:50:55 37° NE 21:57:06 10° ESE
Terra 3.1 21:47:48 10° ESE 21:51:40 27° ENE 21:55:39 10° N
USA 32 4.4 21:46:58 10° N 21:52:05 48° E 21:56:45 12° SSE
Cosmos 1805 Rocket 3.6 21:47:44 10° S 21:52:11 81° E 21:56:39 10° N
ERBS 3.9 21:50:21 10° S 21:52:44 17° SE 21:55:07 10° E
Cosmos 2315 Rocket 4.2 21:51:39 10° NNW 21:57:50 72° W 22:03:59 10° S
Cosmos 1726 2.1 21:56:30 10° N 22:00:18 86° E 22:03:46 12° S
NOSS 3-1 (C) 3.4 21:57:37 10° SSW 22:03:30 79° SE 22:10:07 10° NE
SL-08 RB Rocket 3.8 22:00:48 14° SSE 22:04:38 65° ENE 22:09:07 10° N
Cosmos 1980 4.0 22:03:07 10° NNW 22:08:42 58° ENE 22:13:10 16° SE
Cosmos 1707 Rocket 3.9 22:04:27 10° NNW 22:08:46 63° W 22:13:06 10° S
H-2A R/B 4.1 22:05:02 10° SSW 22:08:49 26° W 22:12:37 10° NW
Cosmos 1937 Rocket 3.7 22:03:49 10° S 22:08:53 52° ESE 22:13:55 10° NNE
Cosmos 220 Rocket 4.3 22:04:51 10° S 22:09:03 47° ESE 22:13:20 10° NNE
Cosmos 1869 4.5 22:08:58 10° NNE 22:12:36 30° ENE 22:14:57 17° SE
Meteor 2-10 4.3 22:07:07 10° N 22:12:50 68° ENE 22:17:31 16° SSE
Cosmos 1666 Rocket 3.7 22:10:31 10° SSW 22:14:54 80° W 22:19:23 10° N
Cosmos 2298 Rocket 4.1 22:10:01 10° SSW 22:15:22 87° WNW 22:20:43 10° NNE
CZ-4 R/B 3.9 22:12:11 10° NNE 22:17:08 70° ESE 22:21:57 10° S
Tiangong 1 1.6 22:14:26 10° SW 22:17:18 35° SSE 22:18:55 20° ESE
Cosmos 2219 3.8 22:11:47 10° SW 22:17:29 61° WNW 22:23:11 10° NNE
Nadezhda 1 Rocket 4.1 22:11:44 10° N 22:17:45 60° ENE 22:22:31 17° SSE
Cosmos 990 Rocket 4.3 22:13:37 12° S 22:18:09 45° ESE 22:23:04 10° NNE
Meteor 1-4 Rocket 2.6 22:14:37 10° NNW 22:18:24 80° W 22:21:10 17° S
Cosmos 2237 Rocket 2.4 22:15:21 10° NNW 22:21:03 66° ENE 22:25:15 18° SE
CZ-4C R/B 3.0 22:21:28 21° SSE 22:23:37 72° ENE 22:27:07 10° N
Cosmos 1271 Rocket 2.9 22:21:52 10° NNW 22:25:42 72° W 22:28:33 18° S
Cosmos 2082 4.0 22:23:04 11° S 22:28:15 47° ESE 22:33:42 10° NE
Cosmos 1470 Rocket 3.6 22:25:29 18° S 22:28:33 58° E 22:32:49 10° NNE
CZ-4B R/B 3.9 22:23:53 10° N 22:29:09 70° WNW 22:34:19 10° SSW
Cosmos 1933 Rocket 3.7 22:26:30 18° S 22:29:41 58° E 22:34:05 10° NNE
SL-08 R/B 4.5 22:23:56 10° S 22:30:09 86° E 22:36:30 10° N
Cosmos 2360 Rocket 4.4 22:27:11 10° WNW 22:30:58 19° W 22:34:44 10° SW
NOSS 0 Rocket 4.0 22:26:42 10° NNW 22:32:52 80° WSW 22:37:22 20° SSE
Cosmos 1745 Rocket 3.9 22:27:23 11° S 22:33:23 79° E 22:39:34 10° N
Cosmos 1703 3.3 22:32:28 14° SSW 22:35:47 80° W 22:39:43 10° N
Iridium 2 3.7 22:33:22 18° S 22:36:07 90° WSW 22:40:00 10° N
SL-14 R/B 4.4 22:32:45 10° SSW 22:36:32 43° WNW 22:40:25 10° N
H-2A R/B 2.1 22:36:57 20° SSE 22:40:44 84° ENE 22:46:14 10° NNW
Cosmos 1709 Rocket 4.5 22:37:58 21° SSE 22:41:39 42° E 22:47:19 10° NNE
Cosmos 1626 2.2 22:41:26 26° S 22:43:22 63° E 22:47:07 10° NNE
SeaSat 1 3.9 22:46:37 13° ESE 22:50:14 28° NE 22:54:25 10° N
Cosmos 1898 Rocket 4.4 22:48:34 10° SW 22:53:35 49° WNW 22:58:39 10° NNE
Cosmos 1386 Rocket 4.4 22:51:01 17° S 22:55:46 85° E 23:01:50 10° N
Lacrosse 4 Rocket 2.0 22:51:53 10° NNW 22:56:13 52° NE 22:58:32 25° ESE
Cosmos 1048 Rocket 4.5 22:52:39 10° NNW 22:57:56 54° ENE 23:00:54 25° SE
Cosmos 1125 Rocket 3.9 22:56:55 26° SSE 22:59:30 45° ESE 23:04:34 10° NNE
Cosmos 389 Rocket 4.0 22:57:17 10° NNE 23:00:16 24° ENE 23:01:12 21° E
Cosmos 2227 Rocket 2.1 22:55:59 10° SSW 23:01:39 88° ESE 23:07:22 10° NNE
Cosmos 1862 Rocket 4.0 23:03:26 10° NNW 23:07:42 55° W 23:10:02 25° SSW
NOSS 3-1 (A) 4.2 23:02:21 10° WSW 23:08:15 56° NW 23:14:54 10° NE
CZ-4C R/B 4.1 23:02:15 10° NNW 23:08:18 33° NE 23:14:58 10° E
Cosmos 2181 Rocket 4.1 23:02:00 10° N 23:08:22 67° E 23:12:03 27° SSE
Spot 2 4.4 23:03:43 10° NNE 23:08:52 81° ESE 23:11:50 25° S
CARTOSAT-1 4.1 23:08:07 25° SSW 23:10:25 51° W 23:14:39 10° NNW
COSMOS 2455 2.8 23:04:36 10° NNW 23:10:41 84° ENE 23:14:03 28° SE
SL-16 R/B 2.2 23:09:32 10° NNW 23:15:15 79° ENE 23:18:12 30° SSE
Cosmos 1933 3.3 23:11:44 10° N 23:15:48 78° E 23:17:12 40° SSE
Cosmos 2333 Rocket 3.0 23:10:44 10° NW 23:16:08 43° WSW 23:19:24 22° SSW
SAR-Lupe-2 4.2 23:15:11 31° SSW 23:16:28 47° W 23:19:57 10° NNW
Cosmos 1455 3.5 23:19:15 10° NNW 23:22:40 32° W 23:24:28 21° SW
FALCON 9 R/B 3.7 23:03:38 10° W 23:23:37 44° SSW 23:27:17 27° SSE
Cosmos 44 Rocket 4.0 23:23:54 33° SE 23:25:03 37° ESE 23:29:52 10° NE
BREEZE-M DEB (TANK) 2.6 23:23:19 10° WNW 23:25:19 47° SW 23:25:19 47° SW
Cosmos 2297 Rocket 2.2 23:23:49 15° SSW 23:28:30 82° WNW 23:34:13 10° NNE
ERBS 2.9 23:25:47 10° WSW 23:29:15 58° NW 23:32:42 10° NE
Terra 2.8 23:26:41 21° SSW 23:29:15 38° W 23:33:42 10° NNW
ATLAS 2AS CENTAUR R/B 3.0 23:22:52 10° SW 23:30:28 89° NW 23:38:38 10° NE
Cosmos 2219 Rocket 3.8 23:27:06 10° NW 23:31:30 24° WSW 23:34:43 15° SW
H-2A R/B 4.0 23:28:48 10° NE 23:32:09 22° E 23:32:31 22° ESE
Cosmos 1340 Rocket 4.4 23:34:55 20° E 23:35:04 20° E 23:38:00 10° NE
Aureole 2 Rocket 3.1 23:34:36 10° N 23:37:37 40° ENE 23:38:01 38° E
Cosmos 1869 Rocket 3.5 23:36:29 41° S 23:38:00 81° E 23:42:31 10° N
ATLAS 3B R/B 2.8 23:35:10 10° NW 23:42:07 65° WSW 23:45:16 32° SSE
CZ-4C R/B 3.7 23:45:36 39° E 23:46:06 42° ENE 23:49:32 10° N
COS B Rocket 3.4 23:44:38 10° N 23:48:28 70° W 23:49:37 45° SSW
Cosmos 1603 4.0 23:43:38 10° NNW 23:49:16 60° ENE 23:52:00 30° SE
Tiangong 1 3.6 23:50:38 10° W 23:51:01 13° WSW 23:51:01 13° WSW
ALOS 2 3.1 23:52:44 37° ESE 23:54:01 49° ENE 23:58:15 10° N
